<?xml version="1.0"?>
<gpx xmlns="http://www.topografix.com/GPX/1/1" xmlns:xsi="http://www.w3.org/2001/XMLSchema-instance" version="1.1" creator="GPX RubyGem 1.0.0 -- http://dougfales.github.io/gpx/" xsi:schemaLocation="http://www.topografix.com/GPX/1/1 http://www.topografix.com/GPX/1/1/gpx.xsd">
  <metadata>
    <name/>
    <time>2026-05-09T02:49:36+00:00</time>
    <bound minlat="90.0" minlon="180.0" maxlat="-90.0" maxlon="-180.0"/>
  </metadata>
  <trk>
    <name/>
    <trkseg>
      <trkpt lat="43.258532" lon="-1.888799">
        <time>1970-01-01T00:00:00+00:00</time>
        <ele>334.0</ele>
      </trkpt>
      <trkpt lat="43.258533" lon="-1.888909">
        <time>1970-01-01T00:00:00+00:00</time>
        <ele>332.0</ele>
      </trkpt>
      <trkpt lat="43.258404" lon="-1.888595">
        <time>1970-01-01T00:00:00+00:00</time>
        <ele>340.0</ele>
      </trkpt>
      <trkpt lat="43.258337" lon="-1.88826">
        <time>1970-01-01T00:00:00+00:00</time>
        <ele>350.0</ele>
      </trkpt>
      <trkpt lat="43.258334" lon="-1.888029">
        <time>1970-01-01T00:00:00+00:00</time>
        <ele>356.0</ele>
      </trkpt>
      <trkpt lat="43.258401" lon="-1.887404">
        <time>1970-01-01T00:00:00+00:00</time>
        <ele>361.0</ele>
      </trkpt>
      <trkpt lat="43.25838" lon="-1.887204">
        <time>1970-01-01T00:00:00+00:00</time>
        <ele>362.0</ele>
      </trkpt>
      <trkpt lat="43.25832" lon="-1.887091">
        <time>1970-01-01T00:00:00+00:00</time>
        <ele>364.0</ele>
      </trkpt>
      <trkpt lat="43.258301" lon="-1.887066">
        <time>1970-01-01T00:00:00+00:00</time>
        <ele>364.0</ele>
      </trkpt>
      <trkpt lat="43.258181" lon="-1.887017">
        <time>1970-01-01T00:00:00+00:00</time>
        <ele>367.0</ele>
      </trkpt>
      <trkpt lat="43.257919" lon="-1.887018">
        <time>1970-01-01T00:00:00+00:00</time>
        <ele>374.0</ele>
      </trkpt>
      <trkpt lat="43.257662" lon="-1.886975">
        <time>1970-01-01T00:00:00+00:00</time>
        <ele>382.0</ele>
      </trkpt>
      <trkpt lat="43.257487" lon="-1.886921">
        <time>1970-01-01T00:00:00+00:00</time>
        <ele>386.0</ele>
      </trkpt>
      <trkpt lat="43.257262" lon="-1.886816">
        <time>1970-01-01T00:00:00+00:00</time>
        <ele>395.0</ele>
      </trkpt>
      <trkpt lat="43.257196" lon="-1.886811">
        <time>1970-01-01T00:00:00+00:00</time>
        <ele>398.0</ele>
      </trkpt>
      <trkpt lat="43.257079" lon="-1.886737">
        <time>1970-01-01T00:00:00+00:00</time>
        <ele>402.0</ele>
      </trkpt>
      <trkpt lat="43.256935" lon="-1.886546">
        <time>1970-01-01T00:00:00+00:00</time>
        <ele>407.0</ele>
      </trkpt>
      <trkpt lat="43.256893" lon="-1.886518">
        <time>1970-01-01T00:00:00+00:00</time>
        <ele>409.0</ele>
      </trkpt>
      <trkpt lat="43.256744" lon="-1.886459">
        <time>1970-01-01T00:00:00+00:00</time>
        <ele>416.0</ele>
      </trkpt>
      <trkpt lat="43.25659" lon="-1.886436">
        <time>1970-01-01T00:00:00+00:00</time>
        <ele>420.0</ele>
      </trkpt>
      <trkpt lat="43.256493" lon="-1.886398">
        <time>1970-01-01T00:00:00+00:00</time>
        <ele>423.0</ele>
      </trkpt>
      <trkpt lat="43.25642" lon="-1.886297">
        <time>1970-01-01T00:00:00+00:00</time>
        <ele>428.0</ele>
      </trkpt>
      <trkpt lat="43.256329" lon="-1.88607">
        <time>1970-01-01T00:00:00+00:00</time>
        <ele>437.0</ele>
      </trkpt>
      <trkpt lat="43.25624" lon="-1.885998">
        <time>1970-01-01T00:00:00+00:00</time>
        <ele>442.0</ele>
      </trkpt>
      <trkpt lat="43.25602" lon="-1.885842">
        <time>1970-01-01T00:00:00+00:00</time>
        <ele>453.0</ele>
      </trkpt>
      <trkpt lat="43.255811" lon="-1.885766">
        <time>1970-01-01T00:00:00+00:00</time>
        <ele>459.0</ele>
      </trkpt>
      <trkpt lat="43.255566" lon="-1.885594">
        <time>1970-01-01T00:00:00+00:00</time>
        <ele>471.0</ele>
      </trkpt>
      <trkpt lat="43.255399" lon="-1.885527">
        <time>1970-01-01T00:00:00+00:00</time>
        <ele>476.0</ele>
      </trkpt>
      <trkpt lat="43.254881" lon="-1.885471">
        <time>1970-01-01T00:00:00+00:00</time>
        <ele>470.0</ele>
      </trkpt>
      <trkpt lat="43.254486" lon="-1.885492">
        <time>1970-01-01T00:00:00+00:00</time>
        <ele>467.0</ele>
      </trkpt>
      <trkpt lat="43.254396" lon="-1.885477">
        <time>1970-01-01T00:00:00+00:00</time>
        <ele>467.0</ele>
      </trkpt>
      <trkpt lat="43.254212" lon="-1.885392">
        <time>1970-01-01T00:00:00+00:00</time>
        <ele>467.0</ele>
      </trkpt>
      <trkpt lat="43.254162" lon="-1.885399">
        <time>1970-01-01T00:00:00+00:00</time>
        <ele>465.0</ele>
      </trkpt>
      <trkpt lat="43.253978" lon="-1.88565">
        <time>1970-01-01T00:00:00+00:00</time>
        <ele>455.0</ele>
      </trkpt>
      <trkpt lat="43.254019" lon="-1.885319">
        <time>1970-01-01T00:00:00+00:00</time>
        <ele>461.0</ele>
      </trkpt>
      <trkpt lat="43.254007" lon="-1.885168">
        <time>1970-01-01T00:00:00+00:00</time>
        <ele>463.0</ele>
      </trkpt>
      <trkpt lat="43.253859" lon="-1.884578">
        <time>1970-01-01T00:00:00+00:00</time>
        <ele>467.0</ele>
      </trkpt>
      <trkpt lat="43.253813" lon="-1.884326">
        <time>1970-01-01T00:00:00+00:00</time>
        <ele>466.0</ele>
      </trkpt>
      <trkpt lat="43.253761" lon="-1.883848">
        <time>1970-01-01T00:00:00+00:00</time>
        <ele>463.0</ele>
      </trkpt>
      <trkpt lat="43.253821" lon="-1.883167">
        <time>1970-01-01T00:00:00+00:00</time>
        <ele>465.0</ele>
      </trkpt>
      <trkpt lat="43.253808" lon="-1.881656">
        <time>1970-01-01T00:00:00+00:00</time>
        <ele>469.0</ele>
      </trkpt>
      <trkpt lat="43.253704" lon="-1.881056">
        <time>1970-01-01T00:00:00+00:00</time>
        <ele>465.0</ele>
      </trkpt>
      <trkpt lat="43.253673" lon="-1.880613">
        <time>1970-01-01T00:00:00+00:00</time>
        <ele>466.0</ele>
      </trkpt>
      <trkpt lat="43.253589" lon="-1.88032">
        <time>1970-01-01T00:00:00+00:00</time>
        <ele>469.0</ele>
      </trkpt>
      <trkpt lat="43.253586" lon="-1.880215">
        <time>1970-01-01T00:00:00+00:00</time>
        <ele>471.0</ele>
      </trkpt>
      <trkpt lat="43.25363" lon="-1.880099">
        <time>1970-01-01T00:00:00+00:00</time>
        <ele>476.0</ele>
      </trkpt>
      <trkpt lat="43.253628" lon="-1.87999">
        <time>1970-01-01T00:00:00+00:00</time>
        <ele>479.0</ele>
      </trkpt>
      <trkpt lat="43.253572" lon="-1.879842">
        <time>1970-01-01T00:00:00+00:00</time>
        <ele>479.0</ele>
      </trkpt>
      <trkpt lat="43.253374" lon="-1.879514">
        <time>1970-01-01T00:00:00+00:00</time>
        <ele>475.0</ele>
      </trkpt>
      <trkpt lat="43.253009" lon="-1.87908">
        <time>1970-01-01T00:00:00+00:00</time>
        <ele>471.0</ele>
      </trkpt>
      <trkpt lat="43.252824" lon="-1.878819">
        <time>1970-01-01T00:00:00+00:00</time>
        <ele>464.0</ele>
      </trkpt>
      <trkpt lat="43.252776" lon="-1.87872">
        <time>1970-01-01T00:00:00+00:00</time>
        <ele>462.0</ele>
      </trkpt>
      <trkpt lat="43.252749" lon="-1.878616">
        <time>1970-01-01T00:00:00+00:00</time>
        <ele>461.0</ele>
      </trkpt>
      <trkpt lat="43.252722" lon="-1.878478">
        <time>1970-01-01T00:00:00+00:00</time>
        <ele>458.0</ele>
      </trkpt>
      <trkpt lat="43.252722" lon="-1.878319">
        <time>1970-01-01T00:00:00+00:00</time>
        <ele>456.0</ele>
      </trkpt>
      <trkpt lat="43.252866" lon="-1.878199">
        <time>1970-01-01T00:00:00+00:00</time>
        <ele>457.0</ele>
      </trkpt>
      <trkpt lat="43.253135" lon="-1.878041">
        <time>1970-01-01T00:00:00+00:00</time>
        <ele>460.0</ele>
      </trkpt>
      <trkpt lat="43.253571" lon="-1.877747">
        <time>1970-01-01T00:00:00+00:00</time>
        <ele>473.0</ele>
      </trkpt>
      <trkpt lat="43.25362" lon="-1.877707">
        <time>1970-01-01T00:00:00+00:00</time>
        <ele>475.0</ele>
      </trkpt>
      <trkpt lat="43.253647" lon="-1.877656">
        <time>1970-01-01T00:00:00+00:00</time>
        <ele>477.0</ele>
      </trkpt>
      <trkpt lat="43.253648" lon="-1.877591">
        <time>1970-01-01T00:00:00+00:00</time>
        <ele>478.0</ele>
      </trkpt>
      <trkpt lat="43.253608" lon="-1.877543">
        <time>1970-01-01T00:00:00+00:00</time>
        <ele>478.0</ele>
      </trkpt>
      <trkpt lat="43.253506" lon="-1.877487">
        <time>1970-01-01T00:00:00+00:00</time>
        <ele>475.0</ele>
      </trkpt>
      <trkpt lat="43.253442" lon="-1.87743">
        <time>1970-01-01T00:00:00+00:00</time>
        <ele>474.0</ele>
      </trkpt>
      <trkpt lat="43.252798" lon="-1.876589">
        <time>1970-01-01T00:00:00+00:00</time>
        <ele>476.0</ele>
      </trkpt>
      <trkpt lat="43.252547" lon="-1.876213">
        <time>1970-01-01T00:00:00+00:00</time>
        <ele>471.0</ele>
      </trkpt>
      <trkpt lat="43.252073" lon="-1.87535">
        <time>1970-01-01T00:00:00+00:00</time>
        <ele>450.0</ele>
      </trkpt>
      <trkpt lat="43.251973" lon="-1.87518">
        <time>1970-01-01T00:00:00+00:00</time>
        <ele>447.0</ele>
      </trkpt>
      <trkpt lat="43.251951" lon="-1.87509">
        <time>1970-01-01T00:00:00+00:00</time>
        <ele>446.0</ele>
      </trkpt>
      <trkpt lat="43.251959" lon="-1.875006">
        <time>1970-01-01T00:00:00+00:00</time>
        <ele>444.0</ele>
      </trkpt>
      <trkpt lat="43.252001" lon="-1.874923">
        <time>1970-01-01T00:00:00+00:00</time>
        <ele>442.0</ele>
      </trkpt>
      <trkpt lat="43.252068" lon="-1.874869">
        <time>1970-01-01T00:00:00+00:00</time>
        <ele>442.0</ele>
      </trkpt>
      <trkpt lat="43.252399" lon="-1.874699">
        <time>1970-01-01T00:00:00+00:00</time>
        <ele>440.0</ele>
      </trkpt>
      <trkpt lat="43.252569" lon="-1.874498">
        <time>1970-01-01T00:00:00+00:00</time>
        <ele>434.0</ele>
      </trkpt>
      <trkpt lat="43.252736" lon="-1.874397">
        <time>1970-01-01T00:00:00+00:00</time>
        <ele>434.0</ele>
      </trkpt>
      <trkpt lat="43.253063" lon="-1.874423">
        <time>1970-01-01T00:00:00+00:00</time>
        <ele>442.0</ele>
      </trkpt>
      <trkpt lat="43.253153" lon="-1.874368">
        <time>1970-01-01T00:00:00+00:00</time>
        <ele>442.0</ele>
      </trkpt>
      <trkpt lat="43.253226" lon="-1.874299">
        <time>1970-01-01T00:00:00+00:00</time>
        <ele>442.0</ele>
      </trkpt>
      <trkpt lat="43.253546" lon="-1.873835">
        <time>1970-01-01T00:00:00+00:00</time>
        <ele>434.0</ele>
      </trkpt>
      <trkpt lat="43.253633" lon="-1.873668">
        <time>1970-01-01T00:00:00+00:00</time>
        <ele>432.0</ele>
      </trkpt>
      <trkpt lat="43.253733" lon="-1.873407">
        <time>1970-01-01T00:00:00+00:00</time>
        <ele>426.0</ele>
      </trkpt>
      <trkpt lat="43.253876" lon="-1.873011">
        <time>1970-01-01T00:00:00+00:00</time>
        <ele>418.0</ele>
      </trkpt>
      <trkpt lat="43.253948" lon="-1.872758">
        <time>1970-01-01T00:00:00+00:00</time>
        <ele>416.0</ele>
      </trkpt>
      <trkpt lat="43.253999" lon="-1.872469">
        <time>1970-01-01T00:00:00+00:00</time>
        <ele>413.0</ele>
      </trkpt>
      <trkpt lat="43.253993" lon="-1.872337">
        <time>1970-01-01T00:00:00+00:00</time>
        <ele>411.0</ele>
      </trkpt>
      <trkpt lat="43.253964" lon="-1.872207">
        <time>1970-01-01T00:00:00+00:00</time>
        <ele>409.0</ele>
      </trkpt>
      <trkpt lat="43.253955" lon="-1.872078">
        <time>1970-01-01T00:00:00+00:00</time>
        <ele>407.0</ele>
      </trkpt>
      <trkpt lat="43.25389" lon="-1.871747">
        <time>1970-01-01T00:00:00+00:00</time>
        <ele>403.0</ele>
      </trkpt>
      <trkpt lat="43.253729" lon="-1.871079">
        <time>1970-01-01T00:00:00+00:00</time>
        <ele>399.0</ele>
      </trkpt>
      <trkpt lat="43.253621" lon="-1.870769">
        <time>1970-01-01T00:00:00+00:00</time>
        <ele>398.0</ele>
      </trkpt>
      <trkpt lat="43.253525" lon="-1.870595">
        <time>1970-01-01T00:00:00+00:00</time>
        <ele>397.0</ele>
      </trkpt>
      <trkpt lat="43.253447" lon="-1.87042">
        <time>1970-01-01T00:00:00+00:00</time>
        <ele>395.0</ele>
      </trkpt>
      <trkpt lat="43.253514" lon="-1.869929">
        <time>1970-01-01T00:00:00+00:00</time>
        <ele>398.0</ele>
      </trkpt>
      <trkpt lat="43.253554" lon="-1.869744">
        <time>1970-01-01T00:00:00+00:00</time>
        <ele>400.0</ele>
      </trkpt>
      <trkpt lat="43.253761" lon="-1.869011">
        <time>1970-01-01T00:00:00+00:00</time>
        <ele>414.0</ele>
      </trkpt>
      <trkpt lat="43.25399" lon="-1.868303">
        <time>1970-01-01T00:00:00+00:00</time>
        <ele>432.0</ele>
      </trkpt>
      <trkpt lat="43.254093" lon="-1.867933">
        <time>1970-01-01T00:00:00+00:00</time>
        <ele>436.0</ele>
      </trkpt>
      <trkpt lat="43.254147" lon="-1.867649">
        <time>1970-01-01T00:00:00+00:00</time>
        <ele>439.0</ele>
      </trkpt>
      <trkpt lat="43.254151" lon="-1.867421">
        <time>1970-01-01T00:00:00+00:00</time>
        <ele>440.0</ele>
      </trkpt>
      <trkpt lat="43.254106" lon="-1.867181">
        <time>1970-01-01T00:00:00+00:00</time>
        <ele>441.0</ele>
      </trkpt>
      <trkpt lat="43.253913" lon="-1.866454">
        <time>1970-01-01T00:00:00+00:00</time>
        <ele>444.0</ele>
      </trkpt>
      <trkpt lat="43.253882" lon="-1.866232">
        <time>1970-01-01T00:00:00+00:00</time>
        <ele>444.0</ele>
      </trkpt>
      <trkpt lat="43.253886" lon="-1.866069">
        <time>1970-01-01T00:00:00+00:00</time>
        <ele>444.0</ele>
      </trkpt>
      <trkpt lat="43.253886" lon="-1.866069">
        <time>1970-01-01T00:00:00+00:00</time>
        <ele>444.0</ele>
      </trkpt>
      <trkpt lat="43.253882" lon="-1.866232">
        <time>1970-01-01T00:00:00+00:00</time>
        <ele>444.0</ele>
      </trkpt>
      <trkpt lat="43.253913" lon="-1.866454">
        <time>1970-01-01T00:00:00+00:00</time>
        <ele>444.0</ele>
      </trkpt>
      <trkpt lat="43.254106" lon="-1.867181">
        <time>1970-01-01T00:00:00+00:00</time>
        <ele>441.0</ele>
      </trkpt>
      <trkpt lat="43.254151" lon="-1.867421">
        <time>1970-01-01T00:00:00+00:00</time>
        <ele>440.0</ele>
      </trkpt>
      <trkpt lat="43.254147" lon="-1.867649">
        <time>1970-01-01T00:00:00+00:00</time>
        <ele>439.0</ele>
      </trkpt>
      <trkpt lat="43.254093" lon="-1.867933">
        <time>1970-01-01T00:00:00+00:00</time>
        <ele>436.0</ele>
      </trkpt>
      <trkpt lat="43.25399" lon="-1.868303">
        <time>1970-01-01T00:00:00+00:00</time>
        <ele>432.0</ele>
      </trkpt>
      <trkpt lat="43.253761" lon="-1.869011">
        <time>1970-01-01T00:00:00+00:00</time>
        <ele>414.0</ele>
      </trkpt>
      <trkpt lat="43.253554" lon="-1.869744">
        <time>1970-01-01T00:00:00+00:00</time>
        <ele>400.0</ele>
      </trkpt>
      <trkpt lat="43.253514" lon="-1.869929">
        <time>1970-01-01T00:00:00+00:00</time>
        <ele>398.0</ele>
      </trkpt>
      <trkpt lat="43.253447" lon="-1.87042">
        <time>1970-01-01T00:00:00+00:00</time>
        <ele>395.0</ele>
      </trkpt>
      <trkpt lat="43.253525" lon="-1.870595">
        <time>1970-01-01T00:00:00+00:00</time>
        <ele>397.0</ele>
      </trkpt>
      <trkpt lat="43.253621" lon="-1.870769">
        <time>1970-01-01T00:00:00+00:00</time>
        <ele>398.0</ele>
      </trkpt>
      <trkpt lat="43.253729" lon="-1.871079">
        <time>1970-01-01T00:00:00+00:00</time>
        <ele>399.0</ele>
      </trkpt>
      <trkpt lat="43.25389" lon="-1.871747">
        <time>1970-01-01T00:00:00+00:00</time>
        <ele>403.0</ele>
      </trkpt>
      <trkpt lat="43.253955" lon="-1.872078">
        <time>1970-01-01T00:00:00+00:00</time>
        <ele>407.0</ele>
      </trkpt>
      <trkpt lat="43.253964" lon="-1.872207">
        <time>1970-01-01T00:00:00+00:00</time>
        <ele>409.0</ele>
      </trkpt>
      <trkpt lat="43.253993" lon="-1.872337">
        <time>1970-01-01T00:00:00+00:00</time>
        <ele>411.0</ele>
      </trkpt>
      <trkpt lat="43.253999" lon="-1.872469">
        <time>1970-01-01T00:00:00+00:00</time>
        <ele>413.0</ele>
      </trkpt>
      <trkpt lat="43.253948" lon="-1.872758">
        <time>1970-01-01T00:00:00+00:00</time>
        <ele>416.0</ele>
      </trkpt>
      <trkpt lat="43.253876" lon="-1.873011">
        <time>1970-01-01T00:00:00+00:00</time>
        <ele>418.0</ele>
      </trkpt>
      <trkpt lat="43.253733" lon="-1.873407">
        <time>1970-01-01T00:00:00+00:00</time>
        <ele>426.0</ele>
      </trkpt>
      <trkpt lat="43.253633" lon="-1.873668">
        <time>1970-01-01T00:00:00+00:00</time>
        <ele>432.0</ele>
      </trkpt>
      <trkpt lat="43.253546" lon="-1.873835">
        <time>1970-01-01T00:00:00+00:00</time>
        <ele>434.0</ele>
      </trkpt>
      <trkpt lat="43.253226" lon="-1.874299">
        <time>1970-01-01T00:00:00+00:00</time>
        <ele>442.0</ele>
      </trkpt>
      <trkpt lat="43.253153" lon="-1.874368">
        <time>1970-01-01T00:00:00+00:00</time>
        <ele>442.0</ele>
      </trkpt>
      <trkpt lat="43.253063" lon="-1.874423">
        <time>1970-01-01T00:00:00+00:00</time>
        <ele>442.0</ele>
      </trkpt>
      <trkpt lat="43.252736" lon="-1.874397">
        <time>1970-01-01T00:00:00+00:00</time>
        <ele>434.0</ele>
      </trkpt>
      <trkpt lat="43.252569" lon="-1.874498">
        <time>1970-01-01T00:00:00+00:00</time>
        <ele>434.0</ele>
      </trkpt>
      <trkpt lat="43.252399" lon="-1.874699">
        <time>1970-01-01T00:00:00+00:00</time>
        <ele>440.0</ele>
      </trkpt>
      <trkpt lat="43.252068" lon="-1.874869">
        <time>1970-01-01T00:00:00+00:00</time>
        <ele>442.0</ele>
      </trkpt>
      <trkpt lat="43.252001" lon="-1.874923">
        <time>1970-01-01T00:00:00+00:00</time>
        <ele>442.0</ele>
      </trkpt>
      <trkpt lat="43.251959" lon="-1.875006">
        <time>1970-01-01T00:00:00+00:00</time>
        <ele>444.0</ele>
      </trkpt>
      <trkpt lat="43.251951" lon="-1.87509">
        <time>1970-01-01T00:00:00+00:00</time>
        <ele>446.0</ele>
      </trkpt>
      <trkpt lat="43.251973" lon="-1.87518">
        <time>1970-01-01T00:00:00+00:00</time>
        <ele>447.0</ele>
      </trkpt>
      <trkpt lat="43.252073" lon="-1.87535">
        <time>1970-01-01T00:00:00+00:00</time>
        <ele>450.0</ele>
      </trkpt>
      <trkpt lat="43.252547" lon="-1.876213">
        <time>1970-01-01T00:00:00+00:00</time>
        <ele>471.0</ele>
      </trkpt>
      <trkpt lat="43.252798" lon="-1.876589">
        <time>1970-01-01T00:00:00+00:00</time>
        <ele>476.0</ele>
      </trkpt>
      <trkpt lat="43.253442" lon="-1.87743">
        <time>1970-01-01T00:00:00+00:00</time>
        <ele>474.0</ele>
      </trkpt>
      <trkpt lat="43.253506" lon="-1.877487">
        <time>1970-01-01T00:00:00+00:00</time>
        <ele>475.0</ele>
      </trkpt>
      <trkpt lat="43.253608" lon="-1.877543">
        <time>1970-01-01T00:00:00+00:00</time>
        <ele>478.0</ele>
      </trkpt>
      <trkpt lat="43.253648" lon="-1.877591">
        <time>1970-01-01T00:00:00+00:00</time>
        <ele>478.0</ele>
      </trkpt>
      <trkpt lat="43.253647" lon="-1.877656">
        <time>1970-01-01T00:00:00+00:00</time>
        <ele>477.0</ele>
      </trkpt>
      <trkpt lat="43.25362" lon="-1.877707">
        <time>1970-01-01T00:00:00+00:00</time>
        <ele>475.0</ele>
      </trkpt>
      <trkpt lat="43.253571" lon="-1.877747">
        <time>1970-01-01T00:00:00+00:00</time>
        <ele>473.0</ele>
      </trkpt>
      <trkpt lat="43.253135" lon="-1.878041">
        <time>1970-01-01T00:00:00+00:00</time>
        <ele>460.0</ele>
      </trkpt>
      <trkpt lat="43.252866" lon="-1.878199">
        <time>1970-01-01T00:00:00+00:00</time>
        <ele>457.0</ele>
      </trkpt>
      <trkpt lat="43.252722" lon="-1.878319">
        <time>1970-01-01T00:00:00+00:00</time>
        <ele>456.0</ele>
      </trkpt>
      <trkpt lat="43.252722" lon="-1.878478">
        <time>1970-01-01T00:00:00+00:00</time>
        <ele>458.0</ele>
      </trkpt>
      <trkpt lat="43.252749" lon="-1.878616">
        <time>1970-01-01T00:00:00+00:00</time>
        <ele>461.0</ele>
      </trkpt>
      <trkpt lat="43.252776" lon="-1.87872">
        <time>1970-01-01T00:00:00+00:00</time>
        <ele>462.0</ele>
      </trkpt>
      <trkpt lat="43.252824" lon="-1.878819">
        <time>1970-01-01T00:00:00+00:00</time>
        <ele>464.0</ele>
      </trkpt>
      <trkpt lat="43.253009" lon="-1.87908">
        <time>1970-01-01T00:00:00+00:00</time>
        <ele>471.0</ele>
      </trkpt>
      <trkpt lat="43.253374" lon="-1.879514">
        <time>1970-01-01T00:00:00+00:00</time>
        <ele>475.0</ele>
      </trkpt>
      <trkpt lat="43.253572" lon="-1.879842">
        <time>1970-01-01T00:00:00+00:00</time>
        <ele>479.0</ele>
      </trkpt>
      <trkpt lat="43.253628" lon="-1.87999">
        <time>1970-01-01T00:00:00+00:00</time>
        <ele>479.0</ele>
      </trkpt>
      <trkpt lat="43.25363" lon="-1.880099">
        <time>1970-01-01T00:00:00+00:00</time>
        <ele>476.0</ele>
      </trkpt>
      <trkpt lat="43.253586" lon="-1.880215">
        <time>1970-01-01T00:00:00+00:00</time>
        <ele>471.0</ele>
      </trkpt>
      <trkpt lat="43.253589" lon="-1.88032">
        <time>1970-01-01T00:00:00+00:00</time>
        <ele>469.0</ele>
      </trkpt>
      <trkpt lat="43.253673" lon="-1.880613">
        <time>1970-01-01T00:00:00+00:00</time>
        <ele>466.0</ele>
      </trkpt>
      <trkpt lat="43.253704" lon="-1.881056">
        <time>1970-01-01T00:00:00+00:00</time>
        <ele>465.0</ele>
      </trkpt>
      <trkpt lat="43.253808" lon="-1.881656">
        <time>1970-01-01T00:00:00+00:00</time>
        <ele>469.0</ele>
      </trkpt>
      <trkpt lat="43.253821" lon="-1.883167">
        <time>1970-01-01T00:00:00+00:00</time>
        <ele>465.0</ele>
      </trkpt>
      <trkpt lat="43.253761" lon="-1.883848">
        <time>1970-01-01T00:00:00+00:00</time>
        <ele>463.0</ele>
      </trkpt>
      <trkpt lat="43.253813" lon="-1.884326">
        <time>1970-01-01T00:00:00+00:00</time>
        <ele>466.0</ele>
      </trkpt>
      <trkpt lat="43.253859" lon="-1.884578">
        <time>1970-01-01T00:00:00+00:00</time>
        <ele>467.0</ele>
      </trkpt>
      <trkpt lat="43.254007" lon="-1.885168">
        <time>1970-01-01T00:00:00+00:00</time>
        <ele>463.0</ele>
      </trkpt>
      <trkpt lat="43.254019" lon="-1.885319">
        <time>1970-01-01T00:00:00+00:00</time>
        <ele>461.0</ele>
      </trkpt>
      <trkpt lat="43.253978" lon="-1.88565">
        <time>1970-01-01T00:00:00+00:00</time>
        <ele>455.0</ele>
      </trkpt>
      <trkpt lat="43.254162" lon="-1.885399">
        <time>1970-01-01T00:00:00+00:00</time>
        <ele>465.0</ele>
      </trkpt>
      <trkpt lat="43.254212" lon="-1.885392">
        <time>1970-01-01T00:00:00+00:00</time>
        <ele>467.0</ele>
      </trkpt>
      <trkpt lat="43.254396" lon="-1.885477">
        <time>1970-01-01T00:00:00+00:00</time>
        <ele>467.0</ele>
      </trkpt>
      <trkpt lat="43.254486" lon="-1.885492">
        <time>1970-01-01T00:00:00+00:00</time>
        <ele>467.0</ele>
      </trkpt>
      <trkpt lat="43.254881" lon="-1.885471">
        <time>1970-01-01T00:00:00+00:00</time>
        <ele>470.0</ele>
      </trkpt>
      <trkpt lat="43.255399" lon="-1.885527">
        <time>1970-01-01T00:00:00+00:00</time>
        <ele>476.0</ele>
      </trkpt>
      <trkpt lat="43.255566" lon="-1.885594">
        <time>1970-01-01T00:00:00+00:00</time>
        <ele>471.0</ele>
      </trkpt>
      <trkpt lat="43.255811" lon="-1.885766">
        <time>1970-01-01T00:00:00+00:00</time>
        <ele>459.0</ele>
      </trkpt>
      <trkpt lat="43.25602" lon="-1.885842">
        <time>1970-01-01T00:00:00+00:00</time>
        <ele>453.0</ele>
      </trkpt>
      <trkpt lat="43.25624" lon="-1.885998">
        <time>1970-01-01T00:00:00+00:00</time>
        <ele>442.0</ele>
      </trkpt>
      <trkpt lat="43.256329" lon="-1.88607">
        <time>1970-01-01T00:00:00+00:00</time>
        <ele>437.0</ele>
      </trkpt>
      <trkpt lat="43.25642" lon="-1.886297">
        <time>1970-01-01T00:00:00+00:00</time>
        <ele>428.0</ele>
      </trkpt>
      <trkpt lat="43.256493" lon="-1.886398">
        <time>1970-01-01T00:00:00+00:00</time>
        <ele>423.0</ele>
      </trkpt>
      <trkpt lat="43.25659" lon="-1.886436">
        <time>1970-01-01T00:00:00+00:00</time>
        <ele>420.0</ele>
      </trkpt>
      <trkpt lat="43.256744" lon="-1.886459">
        <time>1970-01-01T00:00:00+00:00</time>
        <ele>416.0</ele>
      </trkpt>
      <trkpt lat="43.256893" lon="-1.886518">
        <time>1970-01-01T00:00:00+00:00</time>
        <ele>409.0</ele>
      </trkpt>
      <trkpt lat="43.256935" lon="-1.886546">
        <time>1970-01-01T00:00:00+00:00</time>
        <ele>407.0</ele>
      </trkpt>
      <trkpt lat="43.257079" lon="-1.886737">
        <time>1970-01-01T00:00:00+00:00</time>
        <ele>402.0</ele>
      </trkpt>
      <trkpt lat="43.257196" lon="-1.886811">
        <time>1970-01-01T00:00:00+00:00</time>
        <ele>398.0</ele>
      </trkpt>
      <trkpt lat="43.257262" lon="-1.886816">
        <time>1970-01-01T00:00:00+00:00</time>
        <ele>395.0</ele>
      </trkpt>
      <trkpt lat="43.257487" lon="-1.886921">
        <time>1970-01-01T00:00:00+00:00</time>
        <ele>386.0</ele>
      </trkpt>
      <trkpt lat="43.257662" lon="-1.886975">
        <time>1970-01-01T00:00:00+00:00</time>
        <ele>382.0</ele>
      </trkpt>
      <trkpt lat="43.257919" lon="-1.887018">
        <time>1970-01-01T00:00:00+00:00</time>
        <ele>374.0</ele>
      </trkpt>
      <trkpt lat="43.258181" lon="-1.887017">
        <time>1970-01-01T00:00:00+00:00</time>
        <ele>367.0</ele>
      </trkpt>
      <trkpt lat="43.258301" lon="-1.887066">
        <time>1970-01-01T00:00:00+00:00</time>
        <ele>364.0</ele>
      </trkpt>
      <trkpt lat="43.25832" lon="-1.887091">
        <time>1970-01-01T00:00:00+00:00</time>
        <ele>364.0</ele>
      </trkpt>
      <trkpt lat="43.25838" lon="-1.887204">
        <time>1970-01-01T00:00:00+00:00</time>
        <ele>362.0</ele>
      </trkpt>
      <trkpt lat="43.258401" lon="-1.887404">
        <time>1970-01-01T00:00:00+00:00</time>
        <ele>361.0</ele>
      </trkpt>
      <trkpt lat="43.258334" lon="-1.888029">
        <time>1970-01-01T00:00:00+00:00</time>
        <ele>356.0</ele>
      </trkpt>
      <trkpt lat="43.258337" lon="-1.88826">
        <time>1970-01-01T00:00:00+00:00</time>
        <ele>350.0</ele>
      </trkpt>
      <trkpt lat="43.258404" lon="-1.888595">
        <time>1970-01-01T00:00:00+00:00</time>
        <ele>340.0</ele>
      </trkpt>
      <trkpt lat="43.258533" lon="-1.888909">
        <time>1970-01-01T00:00:00+00:00</time>
        <ele>332.0</ele>
      </trkpt>
      <trkpt lat="43.258532" lon="-1.888799">
        <time>1970-01-01T00:00:00+00:00</time>
        <ele>334.0</ele>
      </trkpt>
    </trkseg>
  </trk>
</gpx>
